Weather History for KSET - June, 2014

Change the Weather History Date:

Monday, June 23, 2014

  Actual Average (KSTL) Record (KSTL)
Temperature  
Mean Temperature 77 °F 78 °F  
Max Temperature 87 °F 87 °F 101 °F (1930)
Min Temperature 70 °F 69 °F 52 °F (1972)
Degree Days  
Heating Degree Days 0 0  
Month to date heating degree days 3  
Since 1 June heating degree days 3  
Since 1 July heating degree days 4533  
Cooling Degree Days 12 13  
Month to date cooling degree days 235  
Year to date cooling degree days 409  
Since 1 June cooling degree days 235  
Growing Degree Days 27 (Base 50)    
Moisture  
Dew Point 70 °F    
Average Humidity 80    
Maximum Humidity 97    
Minimum Humidity 59    
Precipitation  
Precipitation 0.31 in 0.14 in 2.31 in (1924)
Month to date precipitation 3.39  
Year to date precipitation 19.76  
Snow  
Snow 0.00 in 0.00 in 0.00 in (2013)
Month to date snowfall 0.0  
Since 1 June snowfall 0.0  
Since 1 July snowfall 17.7  
Snow Depth -    
Sea Level Pressure  
Sea Level Pressure 29.84 in    
Wind  
Wind Speed 4 mph (SW)    
Max Wind Speed 10 mph    
Max Gust Speed -    
Visibility 9 miles    
Events Thunderstorm    
T = Trace of Precipitation, MM = Missing Value Source: NWS Daily Summary

Daily Weather History Graph

Daily Weather History Graph

Search for Another Location

Airport or City:

Trip Planner

Search our weather history database for the weather conditions in past years. The results will help you decide how hot, cold, wet, or windy it might be!

Date:

Astronomy

Jun. 23, 2014 Rise Set
Actual Time 5:36 AM CDT 8:30 PM CDT
Civil Twilight 5:04 AM CDT 9:03 PM CDT
Nautical Twilight 4:24 AM CDT 9:43 PM CDT
Astronomical Twilight 3:37 AM CDT 10:30 PM CDT
Moon 3:01 AM CDT (6/23) 5:13 PM CDT (6/23)
Length of Visible Light 15h 58m
Length of Day
14h 53m
Waning Crescent, 13% of the Moon is Illuminated
Jun 23
Waning Crescent
Jun 27
New
Jul 5
First Quarter
Jul 12
Full
Jul 18
Last Quarter

Hourly Weather History & Observations

Time (CDT) Temp. Heat Index Dew Point Humidity Pressure Visibility Wind Dir Wind Speed Gust Speed Precip Events Conditions
12:54 AM 71.1 °F - 66.9 °F 87% 29.84 in 10.0 mi ENE 4.6 mph - N/A   Clear
1:54 AM 71.1 °F - 66.9 °F 87% 29.82 in 10.0 mi East 4.6 mph - N/A   Clear
2:54 AM 71.1 °F - 69.1 °F 93% 29.81 in 10.0 mi East 3.5 mph - N/A   Mostly Cloudy
3:05 AM 71.1 °F - 69.1 °F 93% 29.82 in 10.0 mi SE 5.8 mph - N/A   Mostly Cloudy
3:54 AM 71.1 °F - 69.1 °F 93% 29.80 in 9.0 mi Calm Calm - N/A   Clear
4:54 AM 71.1 °F - 69.1 °F 93% 29.81 in 8.0 mi Calm Calm - N/A   Clear
5:54 AM 70.0 °F - 69.1 °F 97% 29.81 in 7.0 mi ESE 4.6 mph - N/A   Clear
6:54 AM 73.0 °F - 70.0 °F 90% 29.83 in 8.0 mi West 5.8 mph - N/A   Clear
7:54 AM 75.0 °F - 69.1 °F 82% 29.83 in 10.0 mi West 4.6 mph - N/A   Partly Cloudy
8:54 AM 75.9 °F - 68.0 °F 76% 29.86 in 10.0 mi West 5.8 mph - N/A   Scattered Clouds
9:54 AM 78.1 °F - 66.9 °F 68% 29.86 in 10.0 mi West 5.8 mph - N/A   Partly Cloudy
10:54 AM 80.1 °F 82.7 °F 68.0 °F 67% 29.86 in 10.0 mi West 8.1 mph - N/A   Scattered Clouds
11:20 AM 81.0 °F 83.8 °F 68.0 °F 65% 29.88 in 10.0 mi Calm Calm - N/A   Mostly Cloudy
11:47 AM 81.0 °F 83.3 °F 66.9 °F 62% 29.88 in 10.0 mi Calm Calm - N/A   Scattered Clouds
11:54 AM 82.0 °F 84.9 °F 68.0 °F 62% 29.87 in 10.0 mi Variable 3.5 mph - N/A   Partly Cloudy
12:54 PM 82.9 °F 86.5 °F 69.1 °F 63% 29.86 in 10.0 mi Variable 4.6 mph - N/A   Clear
1:54 PM 84.9 °F 88.8 °F 69.1 °F 59% 29.83 in 10.0 mi Variable 6.9 mph - N/A   Clear
2:54 PM 84.9 °F 88.8 °F 69.1 °F 59% 29.83 in 10.0 mi WNW 4.6 mph - N/A   Partly Cloudy
5:46 PM 84.0 °F 88.4 °F 70.0 °F 63% 29.81 in 10.0 mi SW 4.6 mph - N/A Thunderstorm Partly Cloudy
5:54 PM 84.0 °F 88.4 °F 70.0 °F 63% 29.79 in 10.0 mi South 4.6 mph - N/A Thunderstorm Clear
6:35 PM 80.1 °F 82.9 °F 69.1 °F 69% 29.81 in 10.0 mi SE 10.4 mph - N/A   Overcast
6:54 PM 80.1 °F 83.2 °F 70.0 °F 71% 29.79 in 10.0 mi SSE 3.5 mph - N/A   Mostly Cloudy
7:14 PM 79.0 °F - 69.1 °F 72% 29.81 in 10.0 mi ENE 6.9 mph - N/A Thunderstorm Partly Cloudy
7:52 PM 77.0 °F - 73.4 °F 89% 29.83 in 8.0 mi SSW 8.1 mph - 0.01 in   Overcast
7:54 PM 77.0 °F - 72.0 °F 84% 29.82 in 9.0 mi SW 9.2 mph - 0.01 in   Mostly Cloudy
8:54 PM 73.9 °F - 72.0 °F 93% 29.83 in 8.0 mi West 5.8 mph - 0.03 in   Scattered Clouds
9:54 PM 73.9 °F - 72.0 °F 93% 29.84 in 10.0 mi NE 3.5 mph - 0.02 in   Mostly Cloudy
10:54 PM 73.9 °F - 73.0 °F 97% 29.85 in 9.0 mi Calm Calm - N/A   Overcast
11:16 PM 73.9 °F - 72.0 °F 93% 29.87 in 7.0 mi South 5.8 mph - N/A   Overcast
11:43 PM 73.0 °F - 72.0 °F 96% 29.87 in 1.8 mi SW 5.8 mph - 0.11 in   Overcast
11:54 PM 73.0 °F - 71.1 °F 93% 29.85 in 1.2 mi WNW 4.6 mph - 0.25 in   Overcast
11:58 PM 73.0 °F - 72.0 °F 96% 29.86 in 2.0 mi West 4.6 mph - 0.02 in Thunderstorm Overcast